Regional Weather Roundup
Issued by NWS Green Bay, WI

Home | Current Version | Previous Version | Graphics & Text | Print | Product List | Glossary Off
Versions: 1 2 3 4 5 6 7 8 9 10 11 12 13 14 15 16 17 18 19 20 21 22 23 24 25 26 27 28 29 30 31 32 33 34 35 36 37 38 39 40 41 42 43 44 45 46 47 48 49 50

000
ASUS43 KGRB 310400
RWRGRB

NORTH-CENTRAL AND NORTHEAST WISCONSIN REGIONAL WEATHER ROUNDUP
NATIONAL WEATHER SERVICE GREEN BAY WI
1100 PM CDT MON MAY 30 2016

WIZ005-009-010>012-018-019-310500-
NORTH CENTRAL WISCONSIN

CITY           SKY/WX    TMP DP  RH WIND       PRES   REMARKS
IRONWOOD       CLOUDY    61  48  63 E8        29.99R
MANITOWISH WTR NOT AVBL
ARBOR VITAE    NOT AVBL
EAGLE RIVER    NOT AVBL
LAND O LAKES   NOT AVBL
RHINELANDER    CLOUDY    64  52  64 NE6       30.02S
PHILLIPS       NOT AVBL
ANTIGO         NOT AVBL
TOMAHAWK       NOT AVBL
MERRILL        NOT AVBL
$$

WIZ013-073-310500-
NORTHEAST WISCONSIN

CITY           SKY/WX    TMP DP  RH WIND       PRES   REMARKS
IRON MOUNTAIN  CLEAR     60  48  64 E7        30.02R
MARINETTE      CLEAR     61  55  82 N5        30.00R
$$

WIZ017-030-035>037-045-310500-
CENTRAL WISCONSIN

CITY           SKY/WX    TMP DP  RH WIND       PRES   REMARKS
MEDFORD        NOT AVBL
WAUSAU         CLOUDY    65  54  67 S6        29.98F
MOSINEE        NOT AVBL
MARSHFIELD     CLOUDY    66  53  63 CALM      29.97F
WISC RAPIDS    CLOUDY    62  52  69 SE6       29.99F
STEVENS POINT  NOT AVBL
WAUPACA        NOT AVBL
SHAWANO        NOT AVBL
CLINTONVILLE   NOT AVBL
WAUTOMA        PTCLDY   N/A N/A N/A CALM      29.99S
$$

WIZ038-039-048-051-310500-
FOX VALLEY

CITY           SKY/WX    TMP DP  RH WIND       PRES   REMARKS
NWS GREEN BAY  CLOUDY    64  58  80 CALM      29.98F
APPLETON       PTCLDY    68  48  49 CALM      29.98F
OSHKOSH        PTCLDY    64  56  75 S7        29.98F
FOND DU LAC    CLEAR     65  59  81 SE5       29.99F
$$

WIZ022-050-052-310500-
EAST CENTRAL WISCONSIN

CITY           SKY/WX    TMP DP  RH WIND       PRES   REMARKS
EPHRAIM        NOT AVBL
STURGEON BAY   NOT AVBL
MANITOWOC      NOT AVBL
SHEBOYGAN      PTCLDY    59  54  83 CALM      30.00S
$$

LMZ563-521-522-541>543-310500-
LAKESHORE

STATION/POSITION TIME  TEMP    WIND        PRES    VSBY  WAVE
                       AIR SEA DIR/SP/G                  HT/PER
                 (UTC) (F)     (DEG/KT/KT) (MB)    (MI)  (FT/S)
SHEBOYGAN LKSHOR 0300   61     180/  4/  4 1016.3R
KEWAUNEE LKSHORE 0300   67                   N/A
NORTHPORT PIER   0300   59      10/  8/ 13 1015.6R
N MID LAKE BUOY  0250   55 50  320/  4/  8 1015.6R         1/ 3
CHAMBERS ISLAND  0300   63     180/  3/  4 1015.2R
MENOMINEE LKSHOR 0306   68                   N/A
$$



USA.gov is the U.S. government's official web portal to all federal, state and local government web resources and services.